TimeEST,TemperatureF,Dew PointF,Humidity,Sea Level PressureIn,VisibilityMPH,Wind Direction,Wind SpeedMPH,Gust SpeedMPH,PrecipitationIn,Events,Conditions,WindDirDegrees,DateUTC
12:53 AM,12.9,6.1,74,30.32,10.0,Calm,Calm,-,N/A,,Clear,0,2013-02-07 05:53:00
1:53 AM,10.0,5.0,80,30.35,10.0,NNW,3.5,-,N/A,,Clear,340,2013-02-07 06:53:00
2:53 AM,9.0,5.0,84,30.36,10.0,Calm,Calm,-,N/A,,Clear,0,2013-02-07 07:53:00
3:53 AM,9.0,3.9,80,30.37,10.0,NNW,5.8,-,N/A,,Clear,330,2013-02-07 08:53:00
4:53 AM,7.0,1.9,80,30.40,10.0,Calm,Calm,-,N/A,,Clear,0,2013-02-07 09:53:00
5:53 AM,9.0,3.9,80,30.39,10.0,North,5.8,-,N/A,,Clear,350,2013-02-07 10:53:00
6:53 AM,10.9,5.0,77,30.41,10.0,Calm,Calm,-,N/A,,Clear,0,2013-02-07 11:53:00
7:53 AM,10.9,6.1,81,30.45,10.0,Calm,Calm,-,N/A,,Partly Cloudy,0,2013-02-07 12:53:00
8:53 AM,15.1,9.0,77,30.46,10.0,Calm,Calm,-,N/A,,Clear,0,2013-02-07 13:53:00
9:53 AM,21.0,10.0,63,30.46,10.0,ENE,3.5,-,N/A,,Partly Cloudy,60,2013-02-07 14:53:00
10:53 AM,21.0,8.1,57,30.45,10.0,ESE,6.9,-,N/A,,Partly Cloudy,110,2013-02-07 15:53:00
11:53 AM,21.9,10.0,60,30.43,10.0,East,4.6,-,N/A,,Clear,90,2013-02-07 16:53:00
12:53 PM,23.0,10.0,58,30.43,10.0,ESE,8.1,-,N/A,,Overcast,110,2013-02-07 17:53:00
1:53 PM,23.0,10.0,58,30.41,10.0,SE,9.2,-,N/A,,Mostly Cloudy,130,2013-02-07 18:53:00
2:53 PM,24.1,10.9,57,30.39,10.0,SE,6.9,-,N/A,,Overcast,130,2013-02-07 19:53:00
3:53 PM,24.1,10.9,57,30.37,10.0,SE,9.2,-,N/A,,Overcast,130,2013-02-07 20:53:00
4:53 PM,24.1,12.0,60,30.37,10.0,SE,9.2,-,N/A,,Mostly Cloudy,140,2013-02-07 21:53:00
5:53 PM,23.0,10.9,60,30.38,10.0,SE,9.2,-,N/A,,Overcast,130,2013-02-07 22:53:00
6:53 PM,21.9,10.9,63,30.37,10.0,SE,9.2,-,N/A,,Clear,130,2013-02-07 23:53:00
7:53 PM,21.9,10.9,63,30.38,10.0,SE,6.9,-,N/A,,Mostly Cloudy,130,2013-02-08 00:53:00
8:53 PM,21.9,10.9,63,30.36,10.0,SE,10.4,-,N/A,,Overcast,130,2013-02-08 01:53:00
9:53 PM,21.9,12.0,66,30.33,10.0,ESE,10.4,-,N/A,,Overcast,120,2013-02-08 02:53:00
10:53 PM,21.9,10.9,63,30.32,10.0,East,8.1,-,N/A,,Overcast,100,2013-02-08 03:53:00
11:09 PM,21.2,12.2,68,30.22,10.0,ESE,9.2,-,N/A,,Overcast,110,2013-02-08 04:09:00
11:49 PM,21.2,12.2,68,30.19,9.0,ESE,10.4,-,0.00,,Overcast,110,2013-02-08 04:49:00
11:53 PM,21.0,12.0,68,30.28,9.0,ESE,11.5,-,0.00,,Overcast,110,2013-02-08 04:53:00